Location: Newark
(45.8667°N, 9.7333°E)
Time: 11:29:03
(UTC+00:00)

Vanguard 3 - Pass Details

Date: 24 January 2020
Orbit: 508 x 3263 km, 33.3° (Epoch: 22 February)

Event Time Altitude Azimuth Distance (km) Brightness Sun altitude
Rises 21:37:02 0° 272° (W) 6,971 12.3 -54.2°
Reaches altitude 10° 21:42:38 10° 266° (W) 5,659 11.7 -54.9°
Enters shadow 21:50:50 27° 244° (WSW) 3,809 10.5 -56.0°
Maximum altitude 21:56:11 35° 209° (SSW) 2,995 - -56.7°
Drops below altitude 10° 22:04:51 10° 148° (SSE) 3,608 - -57.7°
Sets 22:07:35 0° 139° (SE) 4,257 - -58.0°
